{"data":{"norad_id":57344,"epoch":"2026-05-25T03:40:41.511072Z","epoch_age_seconds":62548,"freshness":"FRESH","line1":"1 57344U 23099S   26145.15325823  .00001014  00000+0  46391-4 0  9995","line2":"2 57344  43.0028 180.3037 0001711 289.9356  70.1311 15.27577062157778","mean_motion":15.27577062,"eccentricity":0.0001711,"inclination_deg":43.0028,"raan_deg":180.3037,"arg_perigee_deg":289.9356,"mean_anomaly_deg":70.1311,"bstar":4.6391e-5,"rev_number":15777,"period_min":94.266930017571,"perigee_km":481.88394303642,"apogee_km":484.23184392897,"semimajor_km":6861.1948934827,"source":"CELESTRAK","updated_at":"2026-05-25T13:38:18.288873Z"}}